Louisa, VA

10:39 AM EST on February 21, 2018 (GMT -0500)
Louisa County-Freeman

Weather History for KLKU - December, 2012

Change the Weather History Date:

Wednesday, December 5, 2012

  Actual Average (KOMH) Record (KOMH)
Temperature  
Mean Temperature 53 °F -  
Max Temperature 64 °F 50 °F 80 °F (2001)
Min Temperature 41 °F 30 °F 15 °F (1966)
Degree Days  
Heating Degree Days 12    
Growing Degree Days 3 (Base 50)    
Moisture  
Dew Point 39 °F    
Average Humidity 57    
Maximum Humidity 88    
Minimum Humidity 27    
Precipitation  
Precipitation 0.05 in - - ()
Sea Level Pressure  
Sea Level Pressure 30.13 in    
Wind  
Wind Speed 5 mph (NW)    
Max Wind Speed 13 mph    
Max Gust Speed 18 mph    
Visibility 10 miles    
Events      
Averages and records for this station are not official NWS values.
T = Trace of Precipitation, MM = Missing Value Source: NWS Daily Summary

Daily Weather History Graph

Daily Weather History Graph

Search for Another Location

Airport or City:

Trip Planner

Search our weather history database for the weather conditions in past years. The results will help you decide how hot, cold, wet, or windy it might be!

Date:

Astronomy

Dec. 05, 2012 Rise Set
Actual Time 7:13 AM EST 4:52 PM EST
Civil Twilight 6:44 AM EST 5:21 PM EST
Nautical Twilight 6:11 AM EST 5:54 PM EST
Astronomical Twilight 5:39 AM EST 6:26 PM EST
Moon 11:34 PM EST (12/5) 11:40 AM EST (12/5)
Length of Visible Light 10h 37m
Length of Day
9h 38m
Waning Gibbous, 60% of the Moon is Illuminated
Dec 5
Waning Gibbous
Dec 6
Last Quarter
Dec 13
New
Dec 20
First Quarter
Dec 28
Full

Hourly Weather History & Observations

Time (EST) Temp. Windchill Dew Point Humidity Pressure Visibility Wind Dir Wind Speed Gust Speed Precip Events Conditions
12:15 AM 62.6 °F - 50.0 °F 63% 30.05 in 10.0 mi SW 8.1 mph - N/A   Overcast
12:35 AM 64.4 °F - 50.0 °F 59% 30.05 in 10.0 mi SSW 4.6 mph - N/A   Overcast
12:55 AM 62.6 °F - 50.0 °F 63% 30.04 in 10.0 mi SSW 6.9 mph - N/A   Overcast
1:15 AM 62.6 °F - 50.0 °F 63% 30.04 in 10.0 mi SW 6.9 mph - N/A   Overcast
1:35 AM 62.6 °F - 50.0 °F 63% 30.04 in 10.0 mi SW 4.6 mph - N/A   Mostly Cloudy
1:55 AM 62.6 °F - 50.0 °F 63% 30.04 in 10.0 mi SW 5.8 mph - N/A   Scattered Clouds
2:15 AM 60.8 °F - 50.0 °F 68% 30.04 in 10.0 mi SSW 5.8 mph - N/A   Scattered Clouds
2:55 AM 60.8 °F - 50.0 °F 68% 30.04 in 10.0 mi SW 5.8 mph - N/A   Scattered Clouds
3:15 AM 60.8 °F - 50.0 °F 68% 30.03 in 10.0 mi SW 4.6 mph - N/A   Mostly Cloudy
3:35 AM 60.8 °F - 50.0 °F 68% 30.04 in 10.0 mi SW 5.8 mph - N/A   Scattered Clouds
3:55 AM 60.8 °F - 50.0 °F 68% 30.03 in 10.0 mi SW 4.6 mph - N/A   Overcast
4:15 AM 60.8 °F - 50.0 °F 68% 30.02 in 10.0 mi WSW 4.6 mph - N/A   Mostly Cloudy
4:35 AM 59.0 °F - 48.2 °F 67% 30.02 in 10.0 mi SW 3.5 mph - N/A   Scattered Clouds
4:55 AM 59.0 °F - 48.2 °F 67% 30.02 in 10.0 mi WSW 5.8 mph - N/A   Mostly Cloudy
5:15 AM 59.0 °F - 48.2 °F 67% 30.02 in 10.0 mi SW 4.6 mph - N/A   Scattered Clouds
5:35 AM 59.0 °F - 48.2 °F 67% 30.03 in 10.0 mi WSW 3.5 mph - N/A   Mostly Cloudy
5:55 AM 59.0 °F - 48.2 °F 67% 30.04 in 10.0 mi WSW 3.5 mph - N/A   Mostly Cloudy
6:15 AM 59.0 °F - 48.2 °F 67% 30.07 in 10.0 mi North 4.6 mph - N/A   Mostly Cloudy
6:35 AM 57.2 °F - 50.0 °F 77% 30.08 in 10.0 mi North 3.5 mph - N/A   Overcast
6:55 AM 55.4 °F - 50.0 °F 82% 30.10 in 10.0 mi NNE 4.6 mph - N/A   Overcast
7:15 AM 55.4 °F - 50.0 °F 82% 30.11 in 10.0 mi North 4.6 mph - 0.01 in   Overcast
7:35 AM 55.4 °F - 50.0 °F 82% 30.11 in 10.0 mi North 4.6 mph - 0.03 in   Overcast
7:55 AM 55.4 °F - 50.0 °F 82% 30.13 in 7.0 mi Calm Calm - 0.05 in   Overcast
9:35 AM 55.4 °F - 51.8 °F 88% 30.16 in 10.0 mi Calm Calm - N/A   Overcast
9:55 AM 55.4 °F - 48.2 °F 77% 30.16 in 10.0 mi Calm Calm - N/A   Overcast
10:15 AM 55.4 °F - 46.4 °F 72% 30.16 in 10.0 mi Calm Calm - N/A   Mostly Cloudy
10:35 AM 55.4 °F - 46.4 °F 72% 30.17 in 10.0 mi Calm Calm - N/A   Scattered Clouds
10:55 AM 55.4 °F - 44.6 °F 67% 30.16 in 10.0 mi Calm Calm - N/A   Clear
11:15 AM 57.2 °F - 46.4 °F 67% 30.16 in 10.0 mi Calm Calm - N/A   Clear
11:35 AM 57.2 °F - 39.2 °F 51% 30.15 in 10.0 mi Calm Calm - N/A   Clear
11:55 AM 57.2 °F - 41.0 °F 55% 30.15 in 10.0 mi Calm Calm - N/A   Clear
12:15 PM 59.0 °F - 42.8 °F 55% 30.14 in 10.0 mi NW 4.6 mph - N/A   Clear
12:35 PM 59.0 °F - 33.8 °F 39% 30.14 in - North - - N/A   Unknown
12:55 PM 62.6 °F - 32.0 °F 32% 30.13 in 10.0 mi West 12.7 mph - N/A   Unknown
1:15 PM 62.6 °F - 30.2 °F 30% 30.13 in - North - - N/A   Unknown
1:35 PM 62.6 °F - 30.2 °F 30% 30.13 in 10.0 mi NNW 9.2 mph - N/A   Clear
1:55 PM 62.6 °F - 30.2 °F 30% 30.12 in 10.0 mi WNW 6.9 mph - N/A   Clear
2:15 PM 62.6 °F - 28.4 °F 27% 30.12 in 10.0 mi NW 9.2 mph 16.1 mph N/A   Clear
2:35 PM 62.6 °F - 28.4 °F 27% 30.12 in 10.0 mi NW 8.1 mph - N/A   Clear
3:15 PM 62.6 °F - 28.4 °F 27% 30.12 in 10.0 mi West 9.2 mph - N/A   Clear
3:35 PM 62.6 °F - 28.4 °F 27% 30.12 in 10.0 mi NW 4.6 mph - N/A   Clear
3:55 PM 60.8 °F - 28.4 °F 29% 30.13 in 10.0 mi NW 5.8 mph - N/A   Clear
4:15 PM 60.8 °F - 28.4 °F 29% 30.13 in 10.0 mi WNW 3.5 mph - N/A   Clear
4:35 PM 53.6 °F - 35.6 °F 51% 30.13 in 10.0 mi Calm Calm - N/A   Clear
4:55 PM 48.2 °F - 37.4 °F 66% 30.13 in 10.0 mi Calm Calm - N/A   Clear
5:15 PM 46.4 °F - 33.8 °F 62% 30.14 in 10.0 mi Calm Calm - N/A   Clear
5:35 PM 44.6 °F - 33.8 °F 66% 30.15 in 10.0 mi Calm Calm - N/A   Clear
5:55 PM 44.6 °F 42.2 °F 33.8 °F 66% 30.16 in 10.0 mi NE 4.6 mph - N/A   Clear
6:15 PM 53.6 °F - 28.4 °F 38% 30.17 in 10.0 mi North 5.8 mph - N/A   Clear
6:35 PM 51.8 °F - 28.4 °F 41% 30.19 in 10.0 mi NE 5.8 mph - N/A   Clear
6:55 PM 51.8 °F - 28.4 °F 41% 30.19 in 10.0 mi North 6.9 mph - N/A   Clear
7:15 PM 48.2 °F - 30.2 °F 50% 30.20 in 10.0 mi NE 9.2 mph - N/A   Clear
7:35 PM 50.0 °F - 28.4 °F 43% 30.21 in 10.0 mi NNE 4.6 mph - N/A   Clear
7:55 PM 48.2 °F - 28.4 °F 46% 30.22 in 10.0 mi North 6.9 mph - N/A   Clear
8:15 PM 48.2 °F - 28.4 °F 46% 30.22 in 10.0 mi NNE 4.6 mph - N/A   Clear
8:35 PM 46.4 °F 42.4 °F 28.4 °F 50% 30.23 in 10.0 mi North 8.1 mph - N/A   Clear
8:55 PM 46.4 °F 42.4 °F 30.2 °F 53% 30.23 in 10.0 mi NNE 8.1 mph - N/A   Clear
9:15 PM 44.6 °F 40.7 °F 30.2 °F 57% 30.24 in 10.0 mi North 6.9 mph - N/A   Clear
9:35 PM 44.6 °F 39.7 °F 28.4 °F 53% 30.24 in 10.0 mi NNE 9.2 mph - N/A   Clear
9:55 PM 44.6 °F 39.2 °F 28.4 °F 53% 30.24 in 10.0 mi NNE 10.4 mph 16.1 mph N/A   Clear
10:15 PM 44.6 °F 39.7 °F 28.4 °F 53% 30.24 in 10.0 mi NNE 9.2 mph 18.4 mph N/A   Clear
10:35 PM 42.8 °F 37.0 °F 28.4 °F 57% 30.25 in 10.0 mi NE 10.4 mph - N/A   Clear
10:55 PM 42.8 °F 37.0 °F 28.4 °F 57% 30.25 in 10.0 mi NNE 10.4 mph - N/A   Clear
11:15 PM 42.8 °F 38.0 °F 28.4 °F 57% 30.25 in 10.0 mi NNE 8.1 mph - N/A   Clear
11:35 PM 42.8 °F 36.6 °F 28.4 °F 57% 30.25 in 10.0 mi NNE 11.5 mph - N/A   Clear
11:55 PM 41.0 °F 34.7 °F 28.4 °F 61% 30.26 in 10.0 mi NNE 10.4 mph - N/A   Clear